This is the latest recevied weather packets stored in our database for station/object WP3XM. If no packets are shown the sender has not sent any weather packets the latest 10 day(s).
| Time | Temp. | Humidity | Pressure | Rain* | Wind** | Luminosity | Snow |
|---|---|---|---|---|---|---|---|
| 1778117666 | 25° C | 91% | 1019.8 hPa | 1.27 mm | - | 0 W/m² | - |
| 1778117363 | 25.56° C | 91% | 1019.8 hPa | 7.11 mm | - | 0 W/m² | - |
| 1778117060 | 25.56° C | 90% | 1019.8 hPa | 6.1 mm | - | 0 W/m² | - |
| 1778116757 | 25° C | 89% | 1019.8 hPa | 0 mm | - | 0 W/m² | - |
| 1778116454 | 25° C | 89% | 1019.9 hPa | 0 mm | - | 0 W/m² | - |
| 1778116154 | 25° C | 89% | 1019.8 hPa | 0 mm | - | 0 W/m² | - |
| 1778115849 | 25° C | 88% | 1019.6 hPa | 0 mm | - | 0 W/m² | - |
| 1778115546 | 25° C | 88% | 1019.6 hPa | 0 mm | - | 0 W/m² | - |
| 1778115243 | 25.56° C | 86% | 1019.4 hPa | 0 mm | - | 0 W/m² | - |
| 1778114940 | 26.11° C | 84% | 1019.4 hPa | 0 mm | - | 0 W/m² | - |
| 1778114637 | 27.22° C | 81% | 1019.4 hPa | 0 mm | - | 0 W/m² | - |
| 1778114334 | 27.22° C | 80% | 1019.3 hPa | 0 mm | - | 0 W/m² | - |
| 1778114029 | 27.78° C | 80% | 1019.4 hPa | 0 mm | - | 0 W/m² | - |
| 1778113725 | 27.78° C | 80% | 1019.2 hPa | 0 mm | - | 0 W/m² | - |
| 1778113421 | 27.22° C | 80% | 1019.2 hPa | 0 mm | - | 0 W/m² | - |
| 1778113119 | 27.78° C | 80% | 1019 hPa | 0 mm | - | 0 W/m² | - |
| 1778112815 | 27.78° C | 80% | 1019 hPa | 0 mm | - | 0 W/m² | - |
| 1778112511 | 27.78° C | 80% | 1019.2 hPa | 0 mm | - | 0 W/m² | - |
| 1778112207 | 27.78° C | 80% | 1019.1 hPa | 0 mm | - | 0 W/m² | - |
| 1778111904 | 27.78° C | 80% | 1018.9 hPa | 0 mm | - | 0 W/m² | - |
| 1778111600 | 27.78° C | 80% | 1019.1 hPa | 0 mm | - | 0 W/m² | - |
| 1778111297 | 27.78° C | 81% | 1018.8 hPa | 0 mm | - | 0 W/m² | - |
| 1778110995 | 27.78° C | 80% | 1018.9 hPa | 0 mm | - | 0 W/m² | - |
| 1778110692 | 27.78° C | 80% | 1018.7 hPa | 0 mm | - | 0 W/m² | - |
| 1778110388 | 27.78° C | 80% | 1018.7 hPa | 0 mm | - | 0 W/m² | - |
* Rain latest hour (hover to see other rain measurements)
** Current wind speed in m/s (hover to see current wind gust speed)